Weather History for Centralia, IL

Change the Weather History Date:

Friday, August 30, 2013

  Actual Average (KSLO) Record (KSLO)
Temperature  
Mean Temperature 85 °F -  
Max Temperature 98 °F 86 °F 96 °F (2013)
Min Temperature 72 °F 63 °F 45 °F (1986)
Cooling Degree Days 20    
Growing Degree Days 35 (Base 50)    
Moisture  
Dew Point 74 °F    
Average Humidity 76    
Maximum Humidity 94    
Minimum Humidity 41    
Precipitation  
Precipitation 0.00 in - - ()
Sea Level Pressure  
Sea Level Pressure 29.93 in    
Wind  
Wind Speed 2 mph (SW)    
Max Wind Speed 9 mph    
Max Gust Speed -    
Visibility 7 miles    
Events Fog    
Averages and records for this station are not official NWS values.
T = Trace of Precipitation, MM = Missing Value Source: NWS Daily Summary

Daily Weather History Graph

Daily Weather History Graph

Search for Another Location

Airport:

Trip Planner

Search our weather history database for the weather conditions in past years. The results will help you decide how hot, cold, wet, or windy it might be!

Date:

Astronomy

Aug. 30, 2013 Rise Set
Actual Time 6:24 AM CDT 7:28 PM CDT
Civil Twilight 5:56 AM CDT 7:56 PM CDT
Nautical Twilight 5:24 AM CDT 8:28 PM CDT
Astronomical Twilight 4:50 AM CDT 9:02 PM CDT
Moon 1:04 AM CDT (8/30) 3:42 PM CDT (8/30)
Length of Visible Light 13h 59m
Length of Day
13h 04m
Waning Crescent, 29% of the Moon is Illuminated
Aug 30
Waning Crescent
Sep 5
New
Sep 12
First Quarter
Sep 19
Full
Sep 26
Last Quarter

Hourly Weather History & Observations

Time (CDT) Temp. Heat Index Dew Point Humidity Pressure Visibility Wind Dir Wind Speed Gust Speed Precip Events Conditions
12:15 AM 78.3 °F - 75.2 °F 90% 29.98 in 3.0 mi Calm Calm - N/A   Clear
12:35 AM 77.2 °F - 74.7 °F 92% 29.98 in 3.0 mi Calm Calm - N/A   Clear
12:55 AM 77.0 °F - 74.5 °F 92% 29.98 in 4.0 mi Calm Calm - N/A   Clear
1:15 AM 76.8 °F - 74.1 °F 91% 29.98 in 4.0 mi Calm Calm - N/A   Clear
1:35 AM 76.3 °F - 73.6 °F 91% 29.98 in 5.0 mi Calm Calm - N/A   Clear
1:55 AM 76.6 °F - 73.9 °F 91% 29.98 in 1.8 mi Calm Calm - N/A   Mist
2:15 AM 75.7 °F - 73.0 °F 91% 29.98 in 3.0 mi Calm Calm - N/A   Clear
2:35 AM 75.6 °F - 73.2 °F 92% 29.97 in 2.5 mi Calm Calm - N/A   Clear
2:55 AM 75.7 °F - 73.4 °F 92% 29.97 in 2.5 mi Calm Calm - N/A   Clear
3:15 AM 76.1 °F - 73.6 °F 92% 29.97 in 2.0 mi Calm Calm - N/A   Clear
3:35 AM 74.7 °F - 72.5 °F 93% 29.97 in 2.0 mi Calm Calm - N/A   Clear
3:55 AM 74.3 °F - 72.1 °F 93% 29.97 in 0.8 mi Calm Calm - N/A   Mist
4:15 AM 74.3 °F - 72.0 °F 92% 29.97 in 2.5 mi Calm Calm - N/A   Clear
4:35 AM 74.1 °F - 71.8 °F 92% 29.97 in 1.8 mi Calm Calm - N/A   Mist
4:55 AM 73.4 °F - 71.2 °F 93% 29.97 in 0.8 mi Calm Calm - N/A   Mist
5:15 AM 73.4 °F - 71.2 °F 93% 29.96 in 0.2 mi Calm Calm - N/A Fog Fog
5:55 AM 72.9 °F - 70.9 °F 93% 29.97 in 3.0 mi Calm Calm - N/A   Clear
6:15 AM 72.5 °F - 70.7 °F 94% 29.97 in 0.5 mi Calm Calm - N/A Fog Fog
6:35 AM 73.4 °F - 71.4 °F 93% 29.98 in 0.2 mi Calm Calm - N/A Fog Fog
6:55 AM 73.6 °F - 71.6 °F 93% 29.98 in 2.0 mi Calm Calm - N/A   Clear
7:15 AM 75.4 °F - 73.4 °F 94% 29.98 in 3.0 mi Calm Calm - N/A   Clear
7:35 AM 77.4 °F - 75.4 °F 94% 29.98 in 5.0 mi Calm Calm - N/A   Clear
7:55 AM 79.2 °F - 74.5 °F 86% 29.98 in 10.0 mi Calm Calm - N/A   Clear
8:55 AM 83.8 °F 91.1 °F 74.3 °F 73% 29.98 in 10.0 mi Calm Calm - N/A   Clear
9:15 AM 86.5 °F 95.5 °F 74.8 °F 68% 29.98 in 10.0 mi Calm Calm - N/A   Clear
9:35 AM 88.0 °F 97.5 °F 74.8 °F 65% 29.98 in 10.0 mi West 3.5 mph - N/A   Clear
9:55 AM 89.4 °F 100.0 °F 75.2 °F 63% 29.98 in 10.0 mi WSW 4.6 mph - N/A   Clear
10:15 AM 89.4 °F 100.0 °F 75.4 °F 63% 29.98 in 10.0 mi WSW 5.8 mph - N/A   Clear
10:35 AM 91.2 °F 102.0 °F 75.2 °F 59% 29.97 in 10.0 mi West 4.6 mph - N/A   Clear
10:55 AM 92.7 °F 104.3 °F 75.6 °F 57% 29.97 in 10.0 mi SW 6.9 mph - N/A   Clear
11:15 AM 93.0 °F 104.6 °F 75.2 °F 56% 29.97 in 10.0 mi WSW 8.1 mph - N/A   Clear
11:35 AM 93.9 °F 106.9 °F 76.1 °F 56% 29.96 in 10.0 mi WSW 4.6 mph - N/A   Clear
11:55 AM 94.5 °F 106.0 °F 75.2 °F 53% 29.96 in 10.0 mi WSW 9.2 mph - N/A   Clear
12:15 PM 95.5 °F 104.4 °F 72.5 °F 47% 29.95 in 10.0 mi SW 9.2 mph - N/A   Clear
12:55 PM - - - N/A% 29.94 in - WSW 9.2 mph - N/A   Unknown
1:15 PM - - - N/A% - - North - - N/A   Unknown
1:35 PM - - - N/A% 29.93 in - WSW 9.2 mph - N/A   Unknown
2:15 PM - - - N/A% - - North - - N/A   Unknown
2:35 PM - - - N/A% 29.91 in - North - - N/A   Unknown
2:55 PM 97.9 °F 106.1 °F 71.1 °F 42% 29.90 in 10.0 mi West 9.2 mph - N/A   Unknown
3:15 PM 98.1 °F 105.7 °F 70.3 °F 41% 29.90 in 10.0 mi West 5.8 mph - N/A   Clear
3:35 PM - - - N/A% - - North - - N/A   Unknown
4:15 PM - - - N/A% 29.88 in - SW 5.8 mph - N/A   Unknown
4:35 PM - - - N/A% 29.88 in - North - - N/A   Unknown
4:55 PM - - - N/A% - - North - - N/A   Unknown
5:35 PM - - - N/A% - - North - - N/A   Unknown
5:55 PM 95.9 °F 105.9 °F 73.6 °F 48% 29.87 in - SW 4.6 mph - N/A   Unknown
6:15 PM 94.3 °F 104.2 °F 73.4 °F 51% 29.87 in 10.0 mi South 9.2 mph - N/A   Unknown
6:35 PM 91.9 °F 101.3 °F 73.8 °F 55% 29.86 in 10.0 mi SSW 8.1 mph - N/A   Clear
6:55 PM 90.5 °F 99.2 °F 73.6 °F 57% 29.86 in 10.0 mi SSW 8.1 mph - N/A   Clear
7:15 PM 88.9 °F 97.1 °F 73.6 °F 60% 29.87 in 10.0 mi SSW 6.9 mph - N/A   Clear
7:35 PM 88.0 °F 96.0 °F 73.4 °F 62% 29.87 in 10.0 mi SSW 6.9 mph - N/A   Clear
7:55 PM 86.4 °F 94.2 °F 73.6 °F 66% 29.87 in 10.0 mi SSW 4.6 mph - N/A   Clear
8:15 PM 84.6 °F 91.7 °F 73.8 °F 70% 29.87 in 10.0 mi SSW 4.6 mph - N/A   Clear
8:35 PM 83.3 °F 89.9 °F 73.9 °F 73% 29.88 in 10.0 mi South 3.5 mph - N/A   Clear
8:55 PM 82.8 °F 89.2 °F 74.3 °F 75% 29.88 in 10.0 mi South 3.5 mph - N/A   Clear
9:15 PM 81.9 °F 88.0 °F 74.3 °F 78% 29.88 in 10.0 mi South 4.6 mph - N/A   Clear
9:35 PM 81.1 °F 86.6 °F 73.9 °F 79% 29.87 in 10.0 mi SSW 3.5 mph - N/A   Clear
9:55 PM 81.0 °F 86.2 °F 73.9 °F 79% 29.87 in 10.0 mi South 4.6 mph - N/A   Clear
10:15 PM 81.5 °F 87.2 °F 73.9 °F 78% 29.87 in 10.0 mi SSW 4.6 mph - N/A   Clear
10:35 PM 81.0 °F 86.2 °F 73.9 °F 79% 29.87 in 10.0 mi South 4.6 mph - N/A   Clear
10:55 PM 81.5 °F 87.4 °F 74.3 °F 79% 29.86 in 10.0 mi SSW 4.6 mph - N/A   Clear
11:15 PM 82.2 °F 88.5 °F 74.3 °F 77% 29.86 in 10.0 mi SSW 6.9 mph - N/A   Clear
11:35 PM 81.7 °F 87.8 °F 74.5 °F 79% 29.85 in 10.0 mi SSW 5.8 mph - N/A   Clear
11:55 PM 81.5 °F 87.4 °F 74.5 °F 79% 29.86 in 10.0 mi SSW 3.5 mph - N/A   Clear